owner,sensor,date,latitude,longitude,vertical_datum,sea_water_practical_salinity,qcFlag 
LUMCON,ioos:station:LUMCON:101:1,2019-09-01T00:00:00Z,29.2533,-90.6633,1.969,3.74,11111222 
LUMCON,ioos:station:LUMCON:101:1,2019-09-01T00:15:00Z,29.2533,-90.6633,1.959,3.64,11111222 
LUMCON,ioos:station:LUMCON:101:1,2019-09-01T00:30:00Z,29.2533,-90.6633,1.952,3.55,11111222 
LUMCON,ioos:station:LUMCON:101:1,2019-09-01T00:45:00Z,29.2533,-90.6633,1.946,3.47,11111222 
LUMCON,ioos:station:LUMCON:101:1,2019-09-01T01:00:00Z,29.2533,-90.6633,1.947,3.4,11111222 
LUMCON,ioos:station:LUMCON:101:1,2019-09-01T01:15:00Z,29.2533,-90.6633,1.946,3.35,11111222 
LUMCON,ioos:station:LUMCON:101:1,2019-09-01T01:30:00Z,29.2533,-90.6633,1.939,3.31,11111222 
LUMCON,ioos:station:LUMCON:101:1,2019-09-01T01:45:00Z,29.2533,-90.6633,1.93,3.27,11111222 
LUMCON,ioos:station:LUMCON:101:1,2019-09-01T02:00:00Z,29.2533,-90.6633,1.921,3.22,11111222 
LUMCON,ioos:station:LUMCON:101:1,2019-09-01T02:15:00Z,29.2533,-90.6633,1.92,3.17,11111222 
LUMCON,ioos:station:LUMCON:101:1,2019-09-01T02:30:00Z,29.2533,-90.6633,1.913,3.13,11111222 
LUMCON,ioos:station:LUMCON:101:1,2019-09-01T02:45:00Z,29.2533,-90.6633,1.909,3.11,11111222 
LUMCON,ioos:station:LUMCON:101:1,2019-09-01T03:00:00Z,29.2533,-90.6633,1.904,3.04,11111222 
LUMCON,ioos:station:LUMCON:101:1,2019-09-01T03:15:00Z,29.2533,-90.6633,1.897,3.03,11111222 
LUMCON,ioos:station:LUMCON:101:1,2019-09-01T03:30:00Z,29.2533,-90.6633,1.891,3.04,11111222 
LUMCON,ioos:station:LUMCON:101:1,2019-09-01T03:45:00Z,29.2533,-90.6633,1.891,3.0,11111222 
LUMCON,ioos:station:LUMCON:101:1,2019-09-01T04:00:00Z,29.2533,-90.6633,1.892,2.97,11111222 
LUMCON,ioos:station:LUMCON:101:1,2019-09-01T04:15:00Z,29.2533,-90.6633,1.903,2.96,11111222 
LUMCON,ioos:station:LUMCON:101:1,2019-09-01T04:30:00Z,29.2533,-90.6633,1.911,2.95,11111222 
LUMCON,ioos:station:LUMCON:101:1,2019-09-01T04:45:00Z,29.2533,-90.6633,1.916,2.99,11111222 
LUMCON,ioos:station:LUMCON:101:1,2019-09-01T05:00:00Z,29.2533,-90.6633,1.91,3.44,11111222 
LUMCON,ioos:station:LUMCON:101:1,2019-09-01T05:15:00Z,29.2533,-90.6633,1.915,3.68,11111222 
LUMCON,ioos:station:LUMCON:101:1,2019-09-01T05:30:00Z,29.2533,-90.6633,1.92,3.65,11111222 
LUMCON,ioos:station:LUMCON:101:1,2019-09-01T05:45:00Z,29.2533,-90.6633,1.932,3.75,11111222 
LUMCON,ioos:station:LUMCON:101:1,2019-09-01T06:00:00Z,29.2533,-90.6633,1.943,3.77,11111222 
LUMCON,ioos:station:LUMCON:101:1,2019-09-01T06:15:00Z,29.2533,-90.6633,1.956,3.95,11111222 
LUMCON,ioos:station:LUMCON:101:1,2019-09-01T06:30:00Z,29.2533,-90.6633,1.966,4.01,11111222 
LUMCON,ioos:station:LUMCON:101:1,2019-09-01T06:45:00Z,29.2533,-90.6633,1.977,4.38,11111222 
LUMCON,ioos:station:LUMCON:101:1,2019-09-01T07:00:00Z,29.2533,-90.6633,1.98,4.53,11111222 
LUMCON,ioos:station:LUMCON:101:1,2019-09-01T07:15:00Z,29.2533,-90.6633,1.982,4.53,11111222 
LUMCON,ioos:station:LUMCON:101:1,2019-09-01T07:30:00Z,29.2533,-90.6633,1.986,4.56,11111222 
LUMCON,ioos:station:LUMCON:101:1,2019-09-01T07:45:00Z,29.2533,-90.6633,1.99,4.66,11111222 
LUMCON,ioos:station:LUMCON:101:1,2019-09-01T08:00:00Z,29.2533,-90.6633,1.998,4.7,11111222 
LUMCON,ioos:station:LUMCON:101:1,2019-09-01T08:15:00Z,29.2533,-90.6633,2.009,4.74,11111222 
LUMCON,ioos:station:LUMCON:101:1,2019-09-01T08:30:00Z,29.2533,-90.6633,2.017,4.74,11111222 
LUMCON,ioos:station:LUMCON:101:1,2019-09-01T08:45:00Z,29.2533,-90.6633,2.023,4.77,11111222 
LUMCON,ioos:station:LUMCON:101:1,2019-09-01T09:00:00Z,29.2533,-90.6633,2.028,4.78,11111222 
LUMCON,ioos:station:LUMCON:101:1,2019-09-01T09:15:00Z,29.2533,-90.6633,2.035,4.77,11111222 
LUMCON,ioos:station:LUMCON:101:1,2019-09-01T09:30:00Z,29.2533,-90.6633,2.037,4.77,11111222 
LUMCON,ioos:station:LUMCON:101:1,2019-09-01T09:45:00Z,29.2533,-90.6633,2.042,4.77,11111222 
LUMCON,ioos:station:LUMCON:101:1,2019-09-01T10:00:00Z,29.2533,-90.6633,2.049,4.78,11111222 
LUMCON,ioos:station:LUMCON:101:1,2019-09-01T10:15:00Z,29.2533,-90.6633,2.057,4.78,11111222 
LUMCON,ioos:station:LUMCON:101:1,2019-09-01T10:30:00Z,29.2533,-90.6633,2.058,4.76,11111222 
LUMCON,ioos:station:LUMCON:101:1,2019-09-01T10:45:00Z,29.2533,-90.6633,2.062,4.76,11111222 
LUMCON,ioos:station:LUMCON:101:1,2019-09-01T11:00:00Z,29.2533,-90.6633,2.063,4.76,11111222 
LUMCON,ioos:station:LUMCON:101:1,2019-09-01T11:15:00Z,29.2533,-90.6633,2.063,4.75,11111222 
LUMCON,ioos:station:LUMCON:101:1,2019-09-01T11:30:00Z,29.2533,-90.6633,2.065,4.73,11111222 
LUMCON,ioos:station:LUMCON:101:1,2019-09-01T11:45:00Z,29.2533,-90.6633,2.069,4.72,11111222 
LUMCON,ioos:station:LUMCON:101:1,2019-09-01T12:00:00Z,29.2533,-90.6633,2.068,4.71,11111222 
LUMCON,ioos:station:LUMCON:101:1,2019-09-01T12:15:00Z,29.2533,-90.6633,2.076,4.7,11111222 
LUMCON,ioos:station:LUMCON:101:1,2019-09-01T12:30:00Z,29.2533,-90.6633,2.07,4.71,11111222 
LUMCON,ioos:station:LUMCON:101:1,2019-09-01T12:45:00Z,29.2533,-90.6633,2.061,4.7,11111222 
LUMCON,ioos:station:LUMCON:101:1,2019-09-01T13:00:00Z,29.2533,-90.6633,2.056,4.69,11111222 
LUMCON,ioos:station:LUMCON:101:1,2019-09-01T13:15:00Z,29.2533,-90.6633,2.057,4.65,11111222 
LUMCON,ioos:station:LUMCON:101:1,2019-09-01T13:30:00Z,29.2533,-90.6633,2.064,4.65,11111222 
LUMCON,ioos:station:LUMCON:101:1,2019-09-01T13:45:00Z,29.2533,-90.6633,2.065,4.64,11111222 
LUMCON,ioos:station:LUMCON:101:1,2019-09-01T14:00:00Z,29.2533,-90.6633,2.063,4.66,11111222 
LUMCON,ioos:station:LUMCON:101:1,2019-09-01T14:15:00Z,29.2533,-90.6633,2.066,4.65,11111222 
LUMCON,ioos:station:LUMCON:101:1,2019-09-01T14:30:00Z,29.2533,-90.6633,2.071,4.65,11111222 
LUMCON,ioos:station:LUMCON:101:1,2019-09-01T14:45:00Z,29.2533,-90.6633,2.073,4.65,11111222 
LUMCON,ioos:station:LUMCON:101:1,2019-09-01T15:00:00Z,29.2533,-90.6633,2.067,4.65,11111222 
LUMCON,ioos:station:LUMCON:101:1,2019-09-01T15:15:00Z,29.2533,-90.6633,2.067,4.83,11111222 
LUMCON,ioos:station:LUMCON:101:1,2019-09-01T15:30:00Z,29.2533,-90.6633,2.071,5.0,11111222 
LUMCON,ioos:station:LUMCON:101:1,2019-09-01T15:45:00Z,29.2533,-90.6633,2.073,5.07,11111222 
LUMCON,ioos:station:LUMCON:101:1,2019-09-01T16:00:00Z,29.2533,-90.6633,2.079,5.19,11111222 
LUMCON,ioos:station:LUMCON:101:1,2019-09-01T16:15:00Z,29.2533,-90.6633,2.086,5.04,11111222 
LUMCON,ioos:station:LUMCON:101:1,2019-09-01T16:30:00Z,29.2533,-90.6633,2.085,5.31,11111222 
LUMCON,ioos:station:LUMCON:101:1,2019-09-01T16:45:00Z,29.2533,-90.6633,2.099,5.3,11111222 
LUMCON,ioos:station:LUMCON:101:1,2019-09-01T17:00:00Z,29.2533,-90.6633,2.118,5.5,11111222 
LUMCON,ioos:station:LUMCON:101:1,2019-09-01T17:15:00Z,29.2533,-90.6633,2.136,5.74,11111222 
LUMCON,ioos:station:LUMCON:101:1,2019-09-01T17:30:00Z,29.2533,-90.6633,2.12,5.81,11111222 
LUMCON,ioos:station:LUMCON:101:1,2019-09-01T17:45:00Z,29.2533,-90.6633,2.09,5.86,11111222 
LUMCON,ioos:station:LUMCON:101:1,2019-09-01T18:00:00Z,29.2533,-90.6633,2.078,5.64,11111222 
LUMCON,ioos:station:LUMCON:101:1,2019-09-01T18:15:00Z,29.2533,-90.6633,2.096,5.58,11111222 
LUMCON,ioos:station:LUMCON:101:1,2019-09-01T18:30:00Z,29.2533,-90.6633,2.116,5.66,11111222 
LUMCON,ioos:station:LUMCON:101:1,2019-09-01T18:45:00Z,29.2533,-90.6633,2.126,5.89,11111222 
LUMCON,ioos:station:LUMCON:101:1,2019-09-01T19:00:00Z,29.2533,-90.6633,2.126,5.88,11111222 
LUMCON,ioos:station:LUMCON:101:1,2019-09-01T19:15:00Z,29.2533,-90.6633,2.13,5.9,11111222 
LUMCON,ioos:station:LUMCON:101:1,2019-09-01T19:30:00Z,29.2533,-90.6633,2.141,5.97,11111222 
LUMCON,ioos:station:LUMCON:101:1,2019-09-01T19:45:00Z,29.2533,-90.6633,2.145,6.1,11111222 
LUMCON,ioos:station:LUMCON:101:1,2019-09-01T20:00:00Z,29.2533,-90.6633,2.141,6.14,11111222 
LUMCON,ioos:station:LUMCON:101:1,2019-09-01T20:15:00Z,29.2533,-90.6633,2.128,6.15,11111222 
LUMCON,ioos:station:LUMCON:101:1,2019-09-01T20:30:00Z,29.2533,-90.6633,2.113,6.3,11111222 
LUMCON,ioos:station:LUMCON:101:1,2019-09-01T20:45:00Z,29.2533,-90.6633,2.108,6.09,11111222 
LUMCON,ioos:station:LUMCON:101:1,2019-09-01T21:00:00Z,29.2533,-90.6633,2.112,6.08,11111222 
LUMCON,ioos:station:LUMCON:101:1,2019-09-01T21:15:00Z,29.2533,-90.6633,2.119,6.04,11111222 
LUMCON,ioos:station:LUMCON:101:1,2019-09-01T21:30:00Z,29.2533,-90.6633,2.119,6.05,11111222 
LUMCON,ioos:station:LUMCON:101:1,2019-09-01T21:45:00Z,29.2533,-90.6633,2.115,6.07,11111222 
LUMCON,ioos:station:LUMCON:101:1,2019-09-01T22:00:00Z,29.2533,-90.6633,2.119,6.06,11111222 
LUMCON,ioos:station:LUMCON:101:1,2019-09-01T22:15:00Z,29.2533,-90.6633,2.117,6.05,11111222 
LUMCON,ioos:station:LUMCON:101:1,2019-09-01T22:30:00Z,29.2533,-90.6633,2.112,6.24,11111222 
LUMCON,ioos:station:LUMCON:101:1,2019-09-01T22:45:00Z,29.2533,-90.6633,2.105,6.71,11111222 
LUMCON,ioos:station:LUMCON:101:1,2019-09-01T23:00:00Z,29.2533,-90.6633,2.098,6.99,11111222 
LUMCON,ioos:station:LUMCON:101:1,2019-09-01T23:15:00Z,29.2533,-90.6633,2.103,6.86,11111222 
LUMCON,ioos:station:LUMCON:101:1,2019-09-01T23:30:00Z,29.2533,-90.6633,2.104,7.12,11111222 
LUMCON,ioos:station:LUMCON:101:1,2019-09-01T23:45:00Z,29.2533,-90.6633,2.099,7.32,11111222 
LUMCON,ioos:station:LUMCON:101:1,2019-09-02T00:00:00Z,29.2533,-90.6633,2.093,7.07,11111222 
LUMCON,ioos:station:LUMCON:101:1,2019-09-02T00:15:00Z,29.2533,-90.6633,2.085,6.82,11111222 
LUMCON,ioos:station:LUMCON:101:1,2019-09-02T00:30:00Z,29.2533,-90.6633,2.075,6.1,11111222 
LUMCON,ioos:station:LUMCON:101:1,2019-09-02T00:45:00Z,29.2533,-90.6633,2.069,5.98,11111222 
LUMCON,ioos:station:LUMCON:101:1,2019-09-02T01:00:00Z,29.2533,-90.6633,2.066,5.84,11111222 
LUMCON,ioos:station:LUMCON:101:1,2019-09-02T01:15:00Z,29.2533,-90.6633,2.067,5.7,11111222 
LUMCON,ioos:station:LUMCON:101:1,2019-09-02T01:30:00Z,29.2533,-90.6633,2.061,5.67,11111222 
LUMCON,ioos:station:LUMCON:101:1,2019-09-02T01:45:00Z,29.2533,-90.6633,2.053,5.66,11111222 
LUMCON,ioos:station:LUMCON:101:1,2019-09-02T02:00:00Z,29.2533,-90.6633,2.048,5.61,11111222 
LUMCON,ioos:station:LUMCON:101:1,2019-09-02T02:15:00Z,29.2533,-90.6633,2.045,5.57,11111222 
LUMCON,ioos:station:LUMCON:101:1,2019-09-02T02:30:00Z,29.2533,-90.6633,2.034,5.52,11111222 
LUMCON,ioos:station:LUMCON:101:1,2019-09-02T02:45:00Z,29.2533,-90.6633,2.028,5.46,11111222 
LUMCON,ioos:station:LUMCON:101:1,2019-09-02T03:00:00Z,29.2533,-90.6633,2.023,5.37,11111222 
LUMCON,ioos:station:LUMCON:101:1,2019-09-02T03:15:00Z,29.2533,-90.6633,2.025,5.25,11111222 
LUMCON,ioos:station:LUMCON:101:1,2019-09-02T03:30:00Z,29.2533,-90.6633,2.031,5.19,11111222 
LUMCON,ioos:station:LUMCON:101:1,2019-09-02T03:45:00Z,29.2533,-90.6633,2.034,5.14,11111222 
LUMCON,ioos:station:LUMCON:101:1,2019-09-02T04:00:00Z,29.2533,-90.6633,2.03,5.12,11111222 
LUMCON,ioos:station:LUMCON:101:1,2019-09-02T04:15:00Z,29.2533,-90.6633,2.023,5.09,11111222 
LUMCON,ioos:station:LUMCON:101:1,2019-09-02T04:30:00Z,29.2533,-90.6633,2.015,5.07,11111222 
LUMCON,ioos:station:LUMCON:101:1,2019-09-02T04:45:00Z,29.2533,-90.6633,2.02,4.98,11111222 
LUMCON,ioos:station:LUMCON:101:1,2019-09-02T05:00:00Z,29.2533,-90.6633,2.02,4.94,11111222 
LUMCON,ioos:station:LUMCON:101:1,2019-09-02T05:15:00Z,29.2533,-90.6633,2.026,4.9,11111222 
LUMCON,ioos:station:LUMCON:101:1,2019-09-02T05:30:00Z,29.2533,-90.6633,2.023,4.89,11111222 
LUMCON,ioos:station:LUMCON:101:1,2019-09-02T05:45:00Z,29.2533,-90.6633,2.023,5.69,11111222 
LUMCON,ioos:station:LUMCON:101:1,2019-09-02T06:00:00Z,29.2533,-90.6633,2.019,6.49,11111222 
LUMCON,ioos:station:LUMCON:101:1,2019-09-02T06:15:00Z,29.2533,-90.6633,2.026,6.65,11111222 
LUMCON,ioos:station:LUMCON:101:1,2019-09-02T06:30:00Z,29.2533,-90.6633,2.036,7.16,11111222 
LUMCON,ioos:station:LUMCON:101:1,2019-09-02T06:45:00Z,29.2533,-90.6633,2.046,6.87,11111222 
LUMCON,ioos:station:LUMCON:101:1,2019-09-02T07:00:00Z,29.2533,-90.6633,2.056,6.88,11111222 
LUMCON,ioos:station:LUMCON:101:1,2019-09-02T07:15:00Z,29.2533,-90.6633,2.06,6.92,11111222 
LUMCON,ioos:station:LUMCON:101:1,2019-09-02T07:30:00Z,29.2533,-90.6633,2.063,8.0,11111222 
LUMCON,ioos:station:LUMCON:101:1,2019-09-02T07:45:00Z,29.2533,-90.6633,2.065,8.57,11111222 
LUMCON,ioos:station:LUMCON:101:1,2019-09-02T08:00:00Z,29.2533,-90.6633,2.069,8.92,11111222 
LUMCON,ioos:station:LUMCON:101:1,2019-09-02T08:15:00Z,29.2533,-90.6633,2.073,9.1,11111222 
LUMCON,ioos:station:LUMCON:101:1,2019-09-02T08:30:00Z,29.2533,-90.6633,2.078,9.38,11111222 
LUMCON,ioos:station:LUMCON:101:1,2019-09-02T08:45:00Z,29.2533,-90.6633,2.081,9.5,11111222 
LUMCON,ioos:station:LUMCON:101:1,2019-09-02T09:00:00Z,29.2533,-90.6633,2.09,9.46,11111222 
LUMCON,ioos:station:LUMCON:101:1,2019-09-02T09:15:00Z,29.2533,-90.6633,2.098,9.16,11111222 
LUMCON,ioos:station:LUMCON:101:1,2019-09-02T09:30:00Z,29.2533,-90.6633,2.101,8.89,11111222 
LUMCON,ioos:station:LUMCON:101:1,2019-09-02T09:45:00Z,29.2533,-90.6633,2.104,9.13,11111222 
LUMCON,ioos:station:LUMCON:101:1,2019-09-02T10:00:00Z,29.2533,-90.6633,2.102,9.03,11111222 
LUMCON,ioos:station:LUMCON:101:1,2019-09-02T10:15:00Z,29.2533,-90.6633,2.103,9.0,11111222 
LUMCON,ioos:station:LUMCON:101:1,2019-09-02T10:30:00Z,29.2533,-90.6633,2.097,8.96,11111222 
LUMCON,ioos:station:LUMCON:101:1,2019-09-02T10:45:00Z,29.2533,-90.6633,2.099,8.92,11111222 
LUMCON,ioos:station:LUMCON:101:1,2019-09-02T11:00:00Z,29.2533,-90.6633,2.101,8.91,11111222 
LUMCON,ioos:station:LUMCON:101:1,2019-09-02T11:15:00Z,29.2533,-90.6633,2.109,8.96,11111222 
LUMCON,ioos:station:LUMCON:101:1,2019-09-02T11:30:00Z,29.2533,-90.6633,2.106,8.81,11111222 
LUMCON,ioos:station:LUMCON:101:1,2019-09-02T11:45:00Z,29.2533,-90.6633,2.104,8.83,11111222 
LUMCON,ioos:station:LUMCON:101:1,2019-09-02T12:00:00Z,29.2533,-90.6633,2.102,8.87,11111222 
LUMCON,ioos:station:LUMCON:101:1,2019-09-02T12:15:00Z,29.2533,-90.6633,2.093,8.87,11111222 
LUMCON,ioos:station:LUMCON:101:1,2019-09-02T12:30:00Z,29.2533,-90.6633,2.091,8.4,11111222 
LUMCON,ioos:station:LUMCON:101:1,2019-09-02T12:45:00Z,29.2533,-90.6633,2.086,8.06,11111222 
LUMCON,ioos:station:LUMCON:101:1,2019-09-02T13:30:00Z,29.2533,-90.6633,2.061,7.5,11111222 
LUMCON,ioos:station:LUMCON:101:1,2019-09-02T13:45:00Z,29.2533,-90.6633,2.052,7.25,11111222 
LUMCON,ioos:station:LUMCON:101:1,2019-09-02T14:00:00Z,29.2533,-90.6633,2.044,7.17,11111222 
LUMCON,ioos:station:LUMCON:101:1,2019-09-02T14:15:00Z,29.2533,-90.6633,2.04,7.1,11111222 
LUMCON,ioos:station:LUMCON:101:1,2019-09-02T14:30:00Z,29.2533,-90.6633,2.034,6.92,11111222 
LUMCON,ioos:station:LUMCON:101:1,2019-09-02T14:45:00Z,29.2533,-90.6633,2.03,6.64,11111222 
LUMCON,ioos:station:LUMCON:101:1,2019-09-02T15:00:00Z,29.2533,-90.6633,2.027,6.49,11111222 
LUMCON,ioos:station:LUMCON:101:1,2019-09-02T15:15:00Z,29.2533,-90.6633,2.019,6.36,11111222 
LUMCON,ioos:station:LUMCON:101:1,2019-09-02T15:30:00Z,29.2533,-90.6633,2.012,6.21,11111222 
LUMCON,ioos:station:LUMCON:101:1,2019-09-02T15:45:00Z,29.2533,-90.6633,2.012,6.08,11111222 
LUMCON,ioos:station:LUMCON:101:1,2019-09-02T16:00:00Z,29.2533,-90.6633,2.015,5.96,11111222 
LUMCON,ioos:station:LUMCON:101:1,2019-09-02T16:15:00Z,29.2533,-90.6633,2.015,5.88,11111222 
LUMCON,ioos:station:LUMCON:101:1,2019-09-02T16:30:00Z,29.2533,-90.6633,2.014,5.76,11111222 
LUMCON,ioos:station:LUMCON:101:1,2019-09-02T16:45:00Z,29.2533,-90.6633,2.008,5.7,11111222 
LUMCON,ioos:station:LUMCON:101:1,2019-09-02T17:00:00Z,29.2533,-90.6633,2.003,5.59,11111222 
LUMCON,ioos:station:LUMCON:101:1,2019-09-02T17:15:00Z,29.2533,-90.6633,2.002,5.45,11111222 
LUMCON,ioos:station:LUMCON:101:1,2019-09-02T17:30:00Z,29.2533,-90.6633,2.007,5.35,11111222 
LUMCON,ioos:station:LUMCON:101:1,2019-09-02T17:45:00Z,29.2533,-90.6633,2.014,5.35,11111222 
LUMCON,ioos:station:LUMCON:101:1,2019-09-02T18:00:00Z,29.2533,-90.6633,2.017,7.18,11111222 
LUMCON,ioos:station:LUMCON:101:1,2019-09-02T18:15:00Z,29.2533,-90.6633,2.021,8.04,11111222 
LUMCON,ioos:station:LUMCON:101:1,2019-09-02T18:30:00Z,29.2533,-90.6633,2.021,8.02,11111222 
LUMCON,ioos:station:LUMCON:101:1,2019-09-02T18:45:00Z,29.2533,-90.6633,2.03,8.03,11111222 
LUMCON,ioos:station:LUMCON:101:1,2019-09-02T19:00:00Z,29.2533,-90.6633,2.04,7.46,11111222 
LUMCON,ioos:station:LUMCON:101:1,2019-09-02T19:15:00Z,29.2533,-90.6633,2.049,7.71,11111222 
LUMCON,ioos:station:LUMCON:101:1,2019-09-02T19:30:00Z,29.2533,-90.6633,2.064,7.53,11111222 
LUMCON,ioos:station:LUMCON:101:1,2019-09-02T19:45:00Z,29.2533,-90.6633,2.067,8.23,11111222 
LUMCON,ioos:station:LUMCON:101:1,2019-09-02T20:00:00Z,29.2533,-90.6633,2.067,8.75,11111222 
LUMCON,ioos:station:LUMCON:101:1,2019-09-02T20:15:00Z,29.2533,-90.6633,2.072,8.46,11111222 
LUMCON,ioos:station:LUMCON:101:1,2019-09-02T20:30:00Z,29.2533,-90.6633,2.081,8.21,11111222 
LUMCON,ioos:station:LUMCON:101:1,2019-09-02T20:45:00Z,29.2533,-90.6633,2.085,8.1,11111222 
LUMCON,ioos:station:LUMCON:101:1,2019-09-02T21:00:00Z,29.2533,-90.6633,2.091,8.18,11111222 
LUMCON,ioos:station:LUMCON:101:1,2019-09-02T21:15:00Z,29.2533,-90.6633,2.099,8.3,11111222 
LUMCON,ioos:station:LUMCON:101:1,2019-09-02T21:30:00Z,29.2533,-90.6633,2.107,8.24,11111222 
LUMCON,ioos:station:LUMCON:101:1,2019-09-02T21:45:00Z,29.2533,-90.6633,2.112,8.26,11111222 
LUMCON,ioos:station:LUMCON:101:1,2019-09-02T22:00:00Z,29.2533,-90.6633,2.121,8.25,11111222 
LUMCON,ioos:station:LUMCON:101:1,2019-09-02T22:15:00Z,29.2533,-90.6633,2.128,8.28,11111222 
LUMCON,ioos:station:LUMCON:101:1,2019-09-02T22:30:00Z,29.2533,-90.6633,2.132,8.26,11111222 
LUMCON,ioos:station:LUMCON:101:1,2019-09-02T22:45:00Z,29.2533,-90.6633,2.137,8.26,11111222 
LUMCON,ioos:station:LUMCON:101:1,2019-09-02T23:00:00Z,29.2533,-90.6633,2.14,8.25,11111222 
LUMCON,ioos:station:LUMCON:101:1,2019-09-02T23:15:00Z,29.2533,-90.6633,2.144,8.24,11111222 
LUMCON,ioos:station:LUMCON:101:1,2019-09-02T23:30:00Z,29.2533,-90.6633,2.145,8.22,11111222 
LUMCON,ioos:station:LUMCON:101:1,2019-09-02T23:45:00Z,29.2533,-90.6633,2.147,8.19,11111222 
LUMCON,ioos:station:LUMCON:101:1,2019-09-03T00:00:00Z,29.2533,-90.6633,2.143,8.16,11111222 
LUMCON,ioos:station:LUMCON:101:1,2019-09-03T00:15:00Z,29.2533,-90.6633,2.149,8.09,11111222 
LUMCON,ioos:station:LUMCON:101:1,2019-09-03T00:30:00Z,29.2533,-90.6633,2.148,8.06,11111222 
LUMCON,ioos:station:LUMCON:101:1,2019-09-03T00:45:00Z,29.2533,-90.6633,2.15,8.07,11111222 
LUMCON,ioos:station:LUMCON:101:1,2019-09-03T01:00:00Z,29.2533,-90.6633,2.15,8.09,11111222 
LUMCON,ioos:station:LUMCON:101:1,2019-09-03T01:15:00Z,29.2533,-90.6633,2.151,8.17,11111222 
LUMCON,ioos:station:LUMCON:101:1,2019-09-03T01:30:00Z,29.2533,-90.6633,2.15,8.18,11111222 
LUMCON,ioos:station:LUMCON:101:1,2019-09-03T01:45:00Z,29.2533,-90.6633,2.148,8.15,11111222 
LUMCON,ioos:station:LUMCON:101:1,2019-09-03T02:00:00Z,29.2533,-90.6633,2.151,8.21,11111222 
LUMCON,ioos:station:LUMCON:101:1,2019-09-03T02:15:00Z,29.2533,-90.6633,2.151,8.17,11111222 
LUMCON,ioos:station:LUMCON:101:1,2019-09-03T02:30:00Z,29.2533,-90.6633,2.153,8.2,11111222 
LUMCON,ioos:station:LUMCON:101:1,2019-09-03T02:45:00Z,29.2533,-90.6633,2.156,8.24,11111222 
LUMCON,ioos:station:LUMCON:101:1,2019-09-03T03:00:00Z,29.2533,-90.6633,2.153,8.37,11111222 
LUMCON,ioos:station:LUMCON:101:1,2019-09-03T03:15:00Z,29.2533,-90.6633,2.151,8.46,11111222 
LUMCON,ioos:station:LUMCON:101:1,2019-09-03T03:30:00Z,29.2533,-90.6633,2.148,8.57,11111222 
LUMCON,ioos:station:LUMCON:101:1,2019-09-03T03:45:00Z,29.2533,-90.6633,2.149,8.63,11111222 
LUMCON,ioos:station:LUMCON:101:1,2019-09-03T04:00:00Z,29.2533,-90.6633,2.153,8.66,11111222 
LUMCON,ioos:station:LUMCON:101:1,2019-09-03T04:15:00Z,29.2533,-90.6633,2.156,8.84,11111222 
LUMCON,ioos:station:LUMCON:101:1,2019-09-03T04:30:00Z,29.2533,-90.6633,2.161,8.79,11111222 
LUMCON,ioos:station:LUMCON:101:1,2019-09-03T04:45:00Z,29.2533,-90.6633,2.163,8.63,11111222 
LUMCON,ioos:station:LUMCON:101:1,2019-09-03T05:00:00Z,29.2533,-90.6633,2.164,8.51,11111222 
LUMCON,ioos:station:LUMCON:101:1,2019-09-03T05:15:00Z,29.2533,-90.6633,2.161,8.93,11111222 
LUMCON,ioos:station:LUMCON:101:1,2019-09-03T05:30:00Z,29.2533,-90.6633,2.16,9.01,11111222 
LUMCON,ioos:station:LUMCON:101:1,2019-09-03T05:45:00Z,29.2533,-90.6633,2.158,9.14,11111222 
LUMCON,ioos:station:LUMCON:101:1,2019-09-03T06:00:00Z,29.2533,-90.6633,2.156,9.19,11111222 
LUMCON,ioos:station:LUMCON:101:1,2019-09-03T06:15:00Z,29.2533,-90.6633,2.155,9.21,11111222 
LUMCON,ioos:station:LUMCON:101:1,2019-09-03T06:30:00Z,29.2533,-90.6633,2.161,9.24,11111222 
LUMCON,ioos:station:LUMCON:101:1,2019-09-03T06:45:00Z,29.2533,-90.6633,2.162,9.23,11111222 
LUMCON,ioos:station:LUMCON:101:1,2019-09-03T07:00:00Z,29.2533,-90.6633,2.165,9.34,11111222 
LUMCON,ioos:station:LUMCON:101:1,2019-09-03T07:15:00Z,29.2533,-90.6633,2.167,9.46,11111222 
LUMCON,ioos:station:LUMCON:101:1,2019-09-03T07:30:00Z,29.2533,-90.6633,2.172,9.68,11111222 
LUMCON,ioos:station:LUMCON:101:1,2019-09-03T07:45:00Z,29.2533,-90.6633,2.175,9.58,11111222 
LUMCON,ioos:station:LUMCON:101:1,2019-09-03T08:00:00Z,29.2533,-90.6633,2.178,9.61,11111222 
LUMCON,ioos:station:LUMCON:101:1,2019-09-03T08:15:00Z,29.2533,-90.6633,2.181,9.66,11111222 
LUMCON,ioos:station:LUMCON:101:1,2019-09-03T08:30:00Z,29.2533,-90.6633,2.182,9.74,11111222 
LUMCON,ioos:station:LUMCON:101:1,2019-09-03T08:45:00Z,29.2533,-90.6633,2.18,9.96,11111222 
LUMCON,ioos:station:LUMCON:101:1,2019-09-03T09:00:00Z,29.2533,-90.6633,2.179,10.03,11111222 
LUMCON,ioos:station:LUMCON:101:1,2019-09-03T09:15:00Z,29.2533,-90.6633,2.178,10.11,11111222 
LUMCON,ioos:station:LUMCON:101:1,2019-09-03T09:30:00Z,29.2533,-90.6633,2.182,10.14,11111222 
LUMCON,ioos:station:LUMCON:101:1,2019-09-03T09:45:00Z,29.2533,-90.6633,2.177,10.1,11111222 
LUMCON,ioos:station:LUMCON:101:1,2019-09-03T10:00:00Z,29.2533,-90.6633,2.172,10.15,11111222 
LUMCON,ioos:station:LUMCON:101:1,2019-09-03T10:15:00Z,29.2533,-90.6633,2.161,9.78,11111222 
LUMCON,ioos:station:LUMCON:101:1,2019-09-03T10:30:00Z,29.2533,-90.6633,2.153,9.57,11111222 
LUMCON,ioos:station:LUMCON:101:1,2019-09-03T10:45:00Z,29.2533,-90.6633,2.153,9.34,11111222 
LUMCON,ioos:station:LUMCON:101:1,2019-09-03T11:00:00Z,29.2533,-90.6633,2.156,9.23,11111222 
LUMCON,ioos:station:LUMCON:101:1,2019-09-03T11:15:00Z,29.2533,-90.6633,2.153,9.2,11111222 
LUMCON,ioos:station:LUMCON:101:1,2019-09-03T11:30:00Z,29.2533,-90.6633,2.151,9.13,11111222 
LUMCON,ioos:station:LUMCON:101:1,2019-09-03T11:45:00Z,29.2533,-90.6633,2.14,9.09,11111222 
LUMCON,ioos:station:LUMCON:101:1,2019-09-03T12:00:00Z,29.2533,-90.6633,2.135,8.91,11111222 
LUMCON,ioos:station:LUMCON:101:1,2019-09-03T12:15:00Z,29.2533,-90.6633,2.129,8.77,11111222 
LUMCON,ioos:station:LUMCON:101:1,2019-09-03T12:30:00Z,29.2533,-90.6633,2.125,8.65,11111222 
LUMCON,ioos:station:LUMCON:101:1,2019-09-03T12:45:00Z,29.2533,-90.6633,2.121,8.63,11111222 
LUMCON,ioos:station:LUMCON:101:1,2019-09-03T13:00:00Z,29.2533,-90.6633,2.115,8.57,11111222 
LUMCON,ioos:station:LUMCON:101:1,2019-09-03T13:15:00Z,29.2533,-90.6633,2.104,8.46,11111222 
LUMCON,ioos:station:LUMCON:101:1,2019-09-03T13:30:00Z,29.2533,-90.6633,2.094,8.39,11111222 
LUMCON,ioos:station:LUMCON:101:1,2019-09-03T13:45:00Z,29.2533,-90.6633,2.084,8.28,11111222 
LUMCON,ioos:station:LUMCON:101:1,2019-09-03T14:00:00Z,29.2533,-90.6633,2.076,8.14,11111222 
LUMCON,ioos:station:LUMCON:101:1,2019-09-03T14:15:00Z,29.2533,-90.6633,2.068,7.97,11111222 
LUMCON,ioos:station:LUMCON:101:1,2019-09-03T14:30:00Z,29.2533,-90.6633,2.059,7.82,11111222 
LUMCON,ioos:station:LUMCON:101:1,2019-09-03T14:45:00Z,29.2533,-90.6633,2.051,7.64,11111222 
LUMCON,ioos:station:LUMCON:101:1,2019-09-03T15:00:00Z,29.2533,-90.6633,2.044,7.42,11111222 
LUMCON,ioos:station:LUMCON:101:1,2019-09-03T15:15:00Z,29.2533,-90.6633,2.037,7.22,11111222 
LUMCON,ioos:station:LUMCON:101:1,2019-09-03T15:30:00Z,29.2533,-90.6633,2.033,7.02,11111222 
LUMCON,ioos:station:LUMCON:101:1,2019-09-03T15:45:00Z,29.2533,-90.6633,2.028,6.88,11111222 
LUMCON,ioos:station:LUMCON:101:1,2019-09-03T16:00:00Z,29.2533,-90.6633,2.026,6.71,11111222 
LUMCON,ioos:station:LUMCON:101:1,2019-09-03T16:15:00Z,29.2533,-90.6633,2.026,6.51,11111222 
LUMCON,ioos:station:LUMCON:101:1,2019-09-03T16:30:00Z,29.2533,-90.6633,2.021,6.44,11111222 
LUMCON,ioos:station:LUMCON:101:1,2019-09-03T16:45:00Z,29.2533,-90.6633,2.02,6.32,11111222 
LUMCON,ioos:station:LUMCON:101:1,2019-09-03T17:00:00Z,29.2533,-90.6633,2.021,6.31,11111222 
LUMCON,ioos:station:LUMCON:101:1,2019-09-03T17:15:00Z,29.2533,-90.6633,2.024,6.12,11111222 